Vertical_Velocity
-1 -2 -0 1 16 9 -2 -2 0 2 4 1 -4 4 2 3 4 10 -4 -1 -3 4 0 -2 -0 1 0 -1 2 2 4 2 1 -0 -0 1 -1 -3 -1 0 -1 -3 -1 -0 -1 1 -1 -2 -2
2 -1 -2 5 11 6 -4 -2 -1 -1 1 -3 -3 -0 2 -6 -4 -1 -2 -3 -2 6 2 0 0 1 1 2 -1 -0 2 2 2 2 -1 -0 1 1 1 0 1 2 1 -1 -1 -0 -1 -1 -1
3 -4 13 3 1 0 2 -0 0 1 -1 0 1 -7 -1 2 -2 1 -1 -2 1 2 6 0 0 -0 1 -1 0 1 -2 -0 -3 -4 -4 -1 1 0 -1 -1 0 -1 -1 -0 0 -1 -1 0 0
0 1 -1 11 -3 -9 -0 0 -1 -2 -1 -4 1 -2 -3 -4 -2 -1 -1 -4 -0 -1 4 -0 -2 -2 1 4 2 1 1 1 2 0 2 1 0 0 -0 1 -1 -1 -1 1 -1 0 -0 -0 -1
-3 1 5 4 -6 -4 -1 -2 -1 -1 -1 -0 3 -6 -1 -5 1 -1 -1 -5 -0 0 7 -1 -1 1 -0 -0 1 1 4 4 2 1 -1 -0 -0 -0 -0 0 1 -0 -1 -2 -2 -0 -2 -2 -0
12 4 7 0 -4 -3 -1 -2 2 1 -2 -3 2 1 3 -4 -1 0 1 2 -2 -2 3 2 0 4 3 -2 1 3 3 2 1 1 -1 2 2 1 1 -1 -2 -2 0 -0 2 0 -0 1 -1
9 6 -5 -1 -4 -3 -4 -1 2 -1 -0 -4 -2 2 3 -1 2 -0 1 6 1 2 -1 1 4 4 2 -0 1 -0 2 2 3 0 -3 -1 0 3 1 2 1 2 1 1 3 -0 2 2 1
8 10 3 -3 -2 -14 -1 0 1 3 -5 -6 -2 -0 1 -0 -2 -2 1 2 1 1 -0 -0 -1 1 2 0 -1 3 6 8 3 5 3 0 2 1 1 -2 0 0 -0 1 -2 -1 1 1 -0
-0 12 -0 -10 5 -14 -1 3 1 -7 2 3 0 1 2 -0 -0 -1 2 4 0 2 -1 0 3 2 -2 -1 -0 2 3 -1 3 8 3 6 2 2 3 -1 2 2 1 -1 -1 2 1 1 1
11 9 -9 -3 -2 -3 -2 6 0 8 0 -6 3 -0 0 2 -2 -3 -5 -2 -0 -2 2 1 1 1 -2 0 0 -3 -2 -2 5 1 2 4 5 5 -0 -1 -1 3 2 2 -0 1 -0 -1 -0
-9 -2 -6 -12 -2 4 -1 1 3 4 -3 -9 -4 10 -3 1 2 1 2 -1 2 3 1 1 2 1 -1 -1 -0 -0 -1 -1 -1 -6 -4 -3 -1 2 3 2 -0 2 1 -0 2 2 1 0 -1
20 -3 1 -13 -1 5 -0 1 -2 5 -21 -3 3 5 4 1 -0 1 -1 2 -1 1 3 1 1 -2 0 2 -1 -1 0 2 1 0 -4 -3 -0 2 1 3 -1 1 1 1 1 0 1 2 1
11 -6 1 -2 -1 -2 5 -4 -8 -7 -10 3 -3 5 -0 -1 -0 -0 1 2 1 -5 -2 -1 1 2 2 4 2 4 4 1 3 1 4 1 -1 -3 -1 1 -0 -1 -1 2 0 1 2 2 -1
-5 2 -5 -1 -4 1 12 -9 33 -22 -2 -1 4 -3 -1 1 -2 4 -1 -2 -3 6 1 1 1 2 1 2 -0 -1 -2 -1 -0 -0 1 1 3 -0 1 2 1 1 1 1 0 2 2 -1 -3
-2 11 0 -3 -8 -7 7 5 -3 -14 8 1 -1 -2 -2 1 7 -8 3 8 -1 4 -1 -1 1 3 2 7 3 2 0 -2 0 -0 -0 -2 2 5 -2 3 2 -1 -1 -2 2 3 1 -2 -1
7 14 10 -12 1 -14 17 -18 -9 -0 4 -1 -1 -2 0 -3 -6 2 -2 -1 3 -0 -4 2 -1 -1 1 1 2 1 -2 2 1 -2 0 -1 0 1 1 1 -2 -0 -0 -0 1 2 0 -1 -1
5 -2 3 -3 -1 1 9 -9 -8 -0 4 -1 -0 -0 -2 -1 -0 -2 -2 -1 -2 2 -4 -2 -2 -1 3 2 3 2 -2 -1 1 -1 2 0 0 2 2 1 2 2 0 -1 0 0 0 -2 -2
-7 5 -0 -1 -13 6 0 -10 -5 -2 3 -3 -1 0 -0 -2 -8 -1 2 3 2 -2 -1 2 3 0 -1 0 1 3 2 1 -0 -1 -2 -2 -1 -1 -1 -2 -1 -1 -0 -1 1 3 2 -2 -2
3 7 3 -8 -7 11 -3 -2 -8 -6 5 1 -2 -6 -1 -2 -8 5 -0 -2 2 6 -3 -3 -1 0 -4 -4 -5 -1 -3 -2 -4 -2 -1 -1 -5 -3 -1 -1 1 0 2 -0 -1 0 -0 -6 -3
4 4 -12 -12 -3 19 -2 -15 -7 -0 -6 -2 -1 -1 -7 -2 -1 0 2 5 -3 1 4 -2 1 1 0 1 4 2 -0 -0 1 -2 -4 -2 1 -1 1 2 3 -1 -2 -0 1 -2 -1 -0 -3
-4 5 -4 4 -5 -2 10 -15 -5 -17 4 4 -2 -7 2 -3 -0 3 9 -3 5 -3 -5 -3 -1 0 3 4 2 1 4 3 -3 -4 -1 -4 -2 -1 -1 8 -2 -1 -0 0 -1 -1 -2 -4 2
8 -7 3 3 14 -3 11 -25 -8 -7 -5 2 -2 0 -1 3 -2 -4 9 2 -1 -2 12 2 5 4 5 1 -1 -5 -2 -6 2 2 2 -2 -6 -6 -7 0 2 1 4 4 5 -1 -1 -3 -4
-40 5 2 2 3 16 -11 18 -45 1 -0 -1 -1 -2 2 5 6 4 -2 -2 2 5 1 5 8 4 5 2 4 1 1 4 2 -1 4 3 7 10 -1 -8 1 -1 -7 -4 5 -7 -7 1 -3
-8 12 4 3 6 10 -25 7 -26 -2 -13 -4 -2 1 -2 -0 -2 -3 -2 6 1 4 4 3 3 2 7 7 7 -0 0 -4 -5 -9 -7 -2 5 11 4 -12 -2 5 4 3 2 -4 0 2 3
13 11 3 7 9 -13 -4 13 -34 1 1 -1 -1 -0 1 -1 -0 -1 2 4 2 1 2 3 3 1 2 2 7 3 6 4 6 3 -5 -7 -6 -5 16 -3 -1 -1 0 8 -5 -8 2 -6 -2
-8 -7 -7 -7 -3 -13 1 -5 -39 1 1 0 -1 -1 -1 -1 -3 0 1 1 3 5 1 -0 -2 1 4 -1 1 2 3 -2 6 4 5 -7 -4 1 11 12 -2 3 2 6 -0 -3 2 1 -1
-24 13 -39 11 -1 6 -8 -1 8 2 3 2 1 0 1 2 1 -1 -1 -1 -1 2 2 3 2 5 6 2 9 3 11 1 2 1 7 -2 6 0 -5 15 -2 1 1 1 2 0 -1 -1 -4
6 -14 19 4 3 1 -4 -3 -14 4 2 2 3 1 1 2 -1 0 1 -2 -1 -3 0 0 -0 -1 2 3 6 3 6 3 2 4 3 -3 2 -4 -1 -2 1 4 1 0 0 4 -1 0 5
14 7 5 6 0 -4 0 -17 -5 -4 -4 -2 1 1 0 -0 -1 -2 -2 -0 -1 1 -2 -3 2 4 4 -0 1 1 5 12 11 5 2 5 -5 -0 -3 6 1 -6 -5 -10 -2 -3 -0 -1 -1
8 -8 -3 6 -8 -3 2 -20 -0 -1 -2 -2 0 -0 1 2 -3 1 -2 -2 0 -4 -0 5 3 5 0 1 8 7 2 -10 2 8 5 6 1 -1 -5 -0 -3 -9 -10 2 -10 5 2 -1 1
Height
1510 1513 1514 1516 1514 1500 1486 1485 1481 1486 1488 1490 1493 1491 1487 1487 1485 1486 1486 1486 1489 1493 1496 1500 1504 1506 1511 1514 1518 1521 1524 1525 1528 1530 1533 1534 1535 1537 1539 1540 1540 1541 1543 1543 1543 1544 1544 1544 1544
1509 1512 1514 1511 1504 1491 1474 1477 1485 1484 1488 1492 1493 1492 1489 1484 1487 1488 1485 1486 1491 1496 1497 1500 1504 1508 1511 1514 1517 1520 1523 1525 1528 1529 1532 1534 1536 1537 1538 1540 1541 1542 1543 1544 1544 1545 1545 1545 1545
1510 1511 1509 1500 1490 1487 1477 1481 1484 1487 1490 1490 1489 1490 1488 1483 1485 1485 1484 1484 1490 1496 1497 1500 1504 1508 1511 1514 1516 1518 1522 1524 1526 1529 1531 1534 1535 1536 1538 1540 1541 1542 1544 1544 1545 1545 1545 1545 1544
1511 1512 1509 1498 1486 1478 1482 1482 1486 1485 1485 1487 1487 1484 1485 1484 1483 1483 1481 1484 1489 1493 1497 1500 1504 1508 1511 1514 1516 1518 1520 1523 1525 1528 1530 1532 1534 1536 1538 1539 1540 1542 1543 1544 1544 1544 1544 1544 1544
1510 1506 1495 1490 1480 1475 1480 1484 1486 1484 1484 1483 1484 1479 1481 1481 1480 1480 1480 1483 1489 1493 1495 1499 1503 1507 1511 1514 1517 1519 1520 1522 1524 1526 1529 1532 1533 1535 1537 1539 1540 1541 1542 1543 1544 1544 1544 1544 1544
1505 1502 1492 1483 1472 1471 1478 1483 1483 1482 1482 1482 1481 1478 1478 1478 1478 1478 1479 1483 1488 1492 1494 1498 1503 1506 1510 1514 1516 1518 1520 1522 1523 1525 1528 1531 1532 1534 1537 1539 1541 1541 1542 1543 1543 1543 1543 1544 1544
1501 1493 1487 1478 1476 1473 1473 1479 1479 1478 1478 1477 1479 1476 1476 1477 1478 1478 1480 1484 1487 1491 1495 1498 1502 1505 1508 1512 1515 1517 1519 1521 1523 1524 1527 1530 1533 1535 1537 1539 1539 1540 1541 1542 1542 1543 1543 1543 1543
1498 1492 1484 1476 1477 1470 1469 1476 1478 1478 1474 1477 1478 1470 1470 1475 1475 1476 1480 1483 1486 1489 1494 1497 1500 1504 1507 1510 1514 1516 1519 1520 1522 1524 1526 1529 1532 1534 1536 1538 1539 1539 1540 1541 1541 1541 1541 1542 1542
1497 1490 1478 1471 1471 1469 1472 1474 1473 1476 1474 1473 1473 1472 1472 1472 1471 1474 1478 1480 1483 1486 1490 1494 1497 1500 1504 1507 1511 1514 1516 1519 1522 1525 1526 1530 1531 1533 1535 1536 1538 1538 1539 1539 1540 1540 1541 1541 1541
1491 1479 1470 1466 1466 1468 1468 1469 1471 1472 1468 1466 1467 1469 1468 1468 1468 1470 1472 1474 1477 1481 1485 1489 1493 1496 1500 1503 1507 1511 1514 1518 1521 1523 1527 1529 1530 1532 1532 1534 1536 1537 1538 1538 1539 1539 1540 1540 1541
1481 1472 1467 1466 1467 1469 1465 1464 1465 1465 1462 1460 1460 1462 1464 1466 1466 1467 1469 1469 1472 1478 1481 1484 1488 1491 1495 1499 1504 1508 1511 1513 1516 1519 1524 1526 1529 1530 1531 1532 1533 1535 1536 1537 1538 1538 1538 1539 1540
1475 1469 1468 1464 1464 1463 1460 1461 1458 1458 1456 1455 1456 1458 1460 1462 1462 1462 1465 1466 1469 1472 1474 1479 1482 1486 1490 1495 1499 1504 1507 1508 1511 1514 1518 1522 1526 1527 1529 1530 1532 1534 1535 1536 1536 1537 1537 1538 1538
1467 1465 1462 1461 1460 1459 1459 1455 1453 1450 1449 1450 1451 1452 1453 1454 1456 1458 1462 1464 1463 1463 1467 1472 1477 1481 1485 1490 1494 1498 1501 1504 1508 1512 1515 1518 1521 1524 1527 1528 1530 1532 1533 1534 1534 1535 1535 1536 1537
1462 1459 1458 1456 1453 1453 1453 1447 1448 1439 1441 1441 1442 1442 1444 1445 1447 1452 1454 1455 1455 1459 1462 1467 1471 1476 1481 1486 1488 1492 1496 1500 1505 1509 1512 1515 1518 1521 1524 1525 1527 1529 1531 1531 1532 1533 1533 1535 1535
1460 1457 1451 1447 1446 1443 1446 1438 1432 1428 1432 1430 1432 1433 1435 1436 1440 1442 1442 1446 1450 1452 1455 1460 1466 1472 1476 1480 1483 1488 1491 1495 1500 1504 1507 1511 1513 1516 1519 1522 1523 1525 1527 1528 1530 1531 1532 1532 1534
1458 1450 1443 1432 1432 1435 1441 1423 1413 1417 1421 1420 1423 1423 1426 1428 1430 1434 1438 1442 1443 1446 1447 1454 1459 1465 1470 1474 1477 1482 1485 1491 1495 1499 1503 1506 1510 1512 1515 1517 1520 1521 1523 1525 1527 1528 1529 1531 1533
1446 1434 1426 1423 1423 1429 1429 1411 1406 1410 1414 1417 1417 1417 1418 1421 1423 1424 1427 1432 1435 1437 1437 1444 1452 1457 1463 1468 1472 1476 1480 1486 1490 1494 1498 1502 1505 1508 1511 1513 1516 1518 1520 1521 1524 1525 1527 1528 1531
1424 1421 1418 1422 1417 1420 1418 1404 1406 1408 1409 1411 1414 1413 1413 1412 1413 1416 1418 1423 1427 1429 1430 1436 1443 1449 1456 1461 1465 1470 1474 1480 1483 1488 1492 1496 1501 1504 1507 1510 1513 1515 1516 1519 1521 1522 1523 1525 1527
1413 1411 1407 1407 1410 1422 1414 1395 1395 1397 1398 1397 1399 1405 1404 1404 1404 1407 1409 1412 1418 1422 1419 1424 1432 1438 1444 1449 1455 1460 1464 1470 1476 1481 1485 1490 1495 1499 1502 1505 1508 1511 1513 1515 1517 1519 1521 1523 1525
1418 1413 1402 1404 1408 1413 1410 1388 1386 1385 1381 1385 1385 1383 1387 1392 1396 1397 1398 1400 1403 1410 1411 1415 1421 1427 1433 1440 1447 1453 1458 1463 1470 1474 1479 1485 1489 1494 1498 1500 1503 1506 1508 1511 1513 1516 1518 1521 1522
1408 1403 1399 1404 1404 1401 1408 1382 1375 1368 1364 1367 1374 1375 1372 1374 1381 1389 1392 1391 1395 1399 1402 1405 1412 1417 1425 1434 1440 1447 1454 1458 1462 1466 1471 1475 1481 1487 1492 1496 1498 1501 1504 1506 1508 1511 1514 1516 1519
1402 1390 1399 1401 1407 1400 1394 1373 1357 1358 1354 1355 1361 1365 1367 1366 1370 1379 1385 1387 1388 1388 1397 1403 1409 1411 1416 1423 1429 1432 1436 1441 1450 1457 1462 1467 1474 1479 1484 1491 1494 1497 1500 1502 1504 1506 1511 1513 1514
1379 1394 1393 1394 1398 1399 1383 1393 1341 1354 1356 1357 1355 1358 1360 1362 1365 1366 1372 1379 1382 1387 1390 1396 1403 1407 1409 1411 1418 1423 1430 1440 1445 1451 1457 1462 1467 1470 1478 1484 1489 1490 1495 1499 1501 1503 1506 1510 1512
1382 1389 1398 1399 1400 1409 1358 1385 1360 1340 1339 1337 1347 1357 1363 1362 1362 1363 1365 1370 1376 1380 1384 1389 1393 1399 1403 1406 1409 1411 1419 1428 1434 1440 1447 1454 1460 1462 1465 1477 1483 1486 1488 1492 1495 1500 1503 1505 1508
1384 1391 1407 1414 1406 1388 1355 1376 1345 1329 1340 1346 1356 1360 1360 1360 1360 1359 1360 1364 1368 1371 1376 1383 1386 1392 1397 1403 1408 1410 1416 1421 1423 1432 1437 1445 1453 1460 1464 1466 1473 1480 1485 1487 1490 1493 1498 1502 1503
1372 1376 1384 1381 1375 1367 1355 1360 1331 1344 1336 1345 1356 1357 1359 1358 1357 1357 1358 1363 1366 1368 1371 1375 1380 1386 1391 1395 1400 1405 1414 1417 1420 1425 1431 1439 1447 1456 1462 1462 1467 1475 1479 1483 1485 1492 1494 1498 1501
1357 1365 1346 1360 1351 1365 1333 1332 1325 1340 1347 1348 1350 1354 1356 1355 1355 1356 1356 1359 1363 1367 1371 1373 1377 1382 1385 1388 1394 1399 1406 1408 1415 1421 1429 1434 1441 1445 1454 1460 1464 1469 1475 1480 1483 1486 1490 1493 1496
1343 1341 1365 1364 1363 1358 1332 1319 1319 1338 1345 1347 1348 1348 1350 1351 1352 1354 1354 1357 1359 1364 1368 1372 1376 1380 1384 1386 1390 1394 1400 1405 1413 1416 1422 1426 1433 1439 1448 1455 1462 1468 1473 1477 1481 1484 1485 1490 1490
1343 1341 1340 1335 1344 1338 1333 1315 1304 1313 1335 1342 1350 1349 1345 1348 1349 1350 1353 1356 1358 1360 1364 1369 1375 1378 1381 1383 1387 1390 1397 1401 1403 1406 1415 1421 1427 1434 1446 1451 1459 1466 1472 1477 1477 1480 1482 1485 1488
1336 1317 1318 1328 1326 1325 1326 1317 1319 1320 1331 1337 1344 1349 1351 1348 1350 1352 1353 1355 1355 1360 1365 1367 1371 1375 1378 1382 1385 1386 1392 1394 1398 1401 1408 1417 1423 1429 1442 1448 1458 1464 1468 1472 1478 1478 1477 1480 1484